EW3838 Weather Reports


time (UTC)temp
C
wind
direction
speed
KPH
gust
KPH
rain 1hr
cm
rain 24hr
cm
rain mn
cm
humidity
%
barometer
mb
20191018032707 11 22 0.0 1.6 0.00 0.36 0.03 96 1012.6
20191018032208 11 22 0.0 1.6 0.00 0.36 0.03 96 1012.7
20191018031708 11 22 0.0 0.0 0.00 0.36 0.03 96 1012.7
20191018031207 11 22 0.0 0.0 0.00 0.36 0.03 96 1012.7
20191018030707 11 22 0.0 0.0 0.00 0.36 0.03 96 1012.7
20191018030208 11 22 0.0 0.0 0.00 0.36 0.03 96 1012.6
20191018025707 11 22 0.0 0.0 0.00 0.36 0.03 96 1012.6
20191018025208 11 22 0.0 0.0 0.00 0.36 0.03 96 1012.7
20191018024707 11 22 0.0 0.0 0.00 0.36 0.03 96 1012.7
20191018024207 11 22 0.0 0.0 0.00 0.36 0.03 96 1012.7
20191018023707 11 22 0.0 0.0 0.00 0.36 0.03 96 1012.7
20191018023207 11 22 0.0 0.0 0.00 0.36 0.03 96 1012.7
20191018022709 11 22 0.0 1.6 0.00 0.36 0.03 96 1012.7
20191018022207 11 22 0.0 1.6 0.00 0.36 0.03 95 1012.8
20191018021708 11 74 0.0 1.6 0.00 0.36 0.03 95 1012.8
20191018021207 11 74 0.0 1.6 0.00 0.36 0.03 95 1012.8
20191018020707 11 74 0.0 1.6 0.00 0.36 0.03 95 1012.9
20191018020207 11 74 0.0 1.6 0.00 0.36 0.03 95 1012.8
20191018015707 11 159 0.0 1.6 0.00 0.36 0.03 95 1012.8
20191018015208 11 159 0.0 1.6 0.00 0.36 0.03 95 1012.7
20191018014707 11 159 0.0 1.6 0.00 0.36 0.03 95 1012.8
20191018014207 12 159 0.0 0.0 0.00 0.36 0.03 95 1012.8
20191018013707 12 159 0.0 0.0 0.00 0.36 0.03 95 1012.8
20191018013207 12 159 0.0 0.0 0.00 0.36 0.03 95 1012.9
20191018012708 12 159 0.0 0.0 0.00 0.36 0.03 95 1012.8
20191018012207 12 159 0.0 0.0 0.00 0.36 0.03 95 1012.8
20191018011707 12 159 0.0 0.0 0.00 0.36 0.03 95 1012.9
20191018011206 12 159 0.0 0.0 0.00 0.36 0.03 95 1013.1
20191018010707 12 159 0.0 0.0 0.00 0.36 0.03 95 1013.2
20191018010207 12 159 0.0 0.0 0.00 0.36 0.03 95 1013.2
20191018005707 12 159 0.0 0.0 0.00 0.36 0.03 95 1013.1
20191018005207 12 159 0.0 0.0 0.00 0.36 0.03 95 1013.3
20191018004707 12 159 0.0 1.6 0.00 0.36 0.03 95 1013.3
20191018004207 12 159 0.0 1.6 0.00 0.36 0.03 95 1013.4
20191018003707 12 159 0.0 1.6 0.00 0.36 0.03 95 1013.5
20191018003207 12 159 0.0 0.0 0.00 0.36 0.03 95 1013.5
20191018002706 12 159 0.0 0.0 0.00 0.36 0.03 95 1013.5
20191018002207 12 159 0.0 0.0 0.00 0.36 0.03 95 1013.6
20191018001707 12 159 0.0 0.0 0.00 0.36 0.03 95 1013.6
20191018001207 12 159 0.0 0.0 0.00 0.36 0.03 95 1013.6
20191018000707 12 159 0.0 1.6 0.00 0.36 0.03 95 1013.6
20191018000207 12 159 0.0 1.6 0.00 0.36 0.03 95 1013.6
20191017235707 12 159 0.0 1.6 0.00 0.36 0.03 95 1013.6
20191017235208 12 159 0.0 0.0 0.00 0.36 0.03 95 1013.6
20191017234707 12 160 0.0 0.0 0.00 0.36 0.03 95 1013.7
20191017234207 12 160 0.0 0.0 0.00 0.36 0.03 95 1013.6
20191017233707 13 159 0.0 0.0 0.00 0.36 0.03 95 1013.7
20191017233207 13 159 0.0 0.0 0.00 0.36 0.03 95 1013.7
20191017232707 13 160 0.0 4.8 0.00 0.36 0.03 95 1013.7
20191017232208 13 157 0.0 4.8 0.00 0.36 0.03 95 1013.7
20191017231708 13 157 0.0 4.8 0.00 0.36 0.03 95 1013.7
20191017231207 13 154 0.0 4.8 0.03 0.36 0.03 95 1013.6
20191017230707 13 165 0.0 1.6 0.03 0.36 0.03 95 1013.6
20191017230207 13 165 0.0 3.2 0.03 0.36 0.03 95 1013.7
20191017225706 13 165 0.0 4.8 0.03 0.36 0.03 95 1013.7
20191017225207 13 161 0.0 8.0 0.05 0.36 0.03 95 1013.6
20191017224707 13 156 1.6 8.0 0.05 0.36 0.03 95 1013.6
20191017224207 13 133 1.6 3.2 0.05 0.36 0.03 95 1013.6
20191017223707 13 158 0.0 1.6 0.05 0.36 0.03 95 1013.7
20191017223207 13 171 0.0 1.6 0.05 0.36 0.03 95 1013.7
20191017222708 13 171 0.0 4.8 0.05 0.36 0.03 95 1013.7
20191017222207 13 171 0.0 4.8 0.05 0.36 0.03 95 1013.8
20191017221707 13 171 0.0 4.8 0.05 0.36 0.03 95 1013.8
20191017221208 13 212 0.0 3.2 0.05 0.33 0.00 95 1013.9
20191017220708 13 205 0.0 3.2 0.05 0.33 0.00 95 1013.9
20191017220207 13 123 0.0 4.8 0.05 0.33 0.33 94 1013.8
20191017215707 13 123 0.0 4.8 0.05 0.33 0.33 94 1013.9
20191017215208 13 119 0.0 4.8 0.05 0.33 0.33 94 1013.9
20191017214707 13 118 0.0 8.0 0.05 0.33 0.33 94 1014.0
20191017214207 13 109 0.0 8.0 0.05 0.33 0.33 94 1014.0
20191017213707 13 140 0.0 9.7 0.05 0.33 0.33 94 1014.0
20191017213207 13 163 1.6 9.7 0.05 0.33 0.33 94 1014.2
20191017212707 13 155 1.6 8.0 0.05 0.33 0.33 94 1014.2
20191017212208 13 167 0.0 8.0 0.05 0.30 0.30 94 1014.2
20191017211705 13 167 0.0 3.2 0.05 0.30 0.30 94 1014.3
20191017211208 13 178 0.0 3.2 0.05 0.30 0.30 94 1014.3
20191017210708 13 178 0.0 8.0 0.05 0.28 0.28 94 1014.3
20191017210208 13 212 0.0 8.0 0.05 0.28 0.28 94 1014.4
20191017205707 13 153 0.0 8.0 0.05 0.28 0.28 94 1014.3
20191017205207 13 209 0.0 3.2 0.08 0.28 0.28 94 1014.3
20191017204707 13 165 0.0 3.2 0.05 0.25 0.25 94 1014.3
20191017204207 13 134 0.0 3.2 0.08 0.25 0.25 94 1014.4
20191017203707 13 134 0.0 3.2 0.08 0.25 0.25 94 1014.3
20191017203207 13 132 0.0 3.2 0.08 0.25 0.25 94 1014.4
20191017202709 13 105 0.0 3.2 0.05 0.23 0.23 94 1014.4
20191017202209 13 156 0.0 3.2 0.05 0.23 0.23 94 1014.4
20191017201707 13 132 0.0 0.0 0.08 0.23 0.23 94 1014.3
20191017201208 13 121 0.0 0.0 0.05 0.23 0.23 94 1014.4
20191017200707 13 121 0.0 0.0 0.05 0.23 0.23 94 1014.4
20191017200207 13 121 0.0 0.0 0.08 0.23 0.23 94 1014.4
20191017195709 13 121 0.0 0.0 0.05 0.20 0.20 94 1014.3
20191017195208 13 121 0.0 0.0 0.08 0.20 0.20 94 1014.3
20191017194710 13 121 0.0 0.0 0.08 0.20 0.20 93 1014.3
20191017194208 13 121 0.0 0.0 0.08 0.18 0.18 93 1014.2
20191017193708 13 121 0.0 0.0 0.08 0.18 0.18 93 1014.2
20191017193207 13 121 0.0 0.0 0.08 0.18 0.18 93 1014.2
20191017192708 13 121 0.0 0.0 0.08 0.18 0.18 93 1014.2
20191017192210 13 121 0.0 0.0 0.08 0.15 0.15 93 1014.2
20191017191708 13 121 0.0 0.0 0.08 0.15 0.15 93 1014.2
20191017191210 13 121 0.0 0.0 0.10 0.15 0.15 92 1014.1
20191017190710 14 121 0.0 0.0 0.10 0.15 0.15 92 1014.2
20191017190209 14 121 0.0 0.0 0.08 0.15 0.15 92 1014.3
20191017185708 14 121 0.0 1.6 0.05 0.13 0.13 92 1014.2
20191017185212 14 121 0.0 1.6 0.05 0.13 0.13 91 1014.3
20191017184708 14 121 0.0 8.0 0.05 0.13 0.13 91 1014.3
20191017184208 14 121 0.0 8.0 0.05 0.10 0.10 91 1014.3
20191017183711 14 121 0.0 8.0 0.05 0.10 0.10 91 1014.3
20191017183207 14 123 0.0 4.8 0.05 0.10 0.10 90 1014.4
20191017182709 14 255 1.6 12.9 0.05 0.10 0.08 90 1014.4
20191017182216 14 221 1.6 12.9 0.05 0.08 0.08 90 1014.3
20191017181707 14 236 3.2 16.1 0.03 0.05 0.05 89 1014.3
20191017181208 14 266 4.8 16.1 0.03 0.05 0.05 89 1014.2
20191017180707 14 231 4.8 16.1 0.03 0.05 0.05 89 1014.2
20191017180209 14 252 3.2 12.9 0.03 0.05 0.05 88 1014.1
20191017175708 15 338 3.2 11.3 0.03 0.05 0.05 88 1014.0
20191017175209 15 190 1.6 11.3 0.05 0.05 0.05 88 1014.0
20191017174709 15 232 1.6 11.3 0.05 0.05 0.05 87 1014.0
20191017174215 15 273 3.2 11.3 0.03 0.05 0.05 87 1014.0
20191017173708 15 296 3.2 14.5 0.03 0.05 0.05 86 1013.9
20191017173211 15 204 3.2 16.1 0.03 0.05 0.05 86 1013.9
20191017172709 15 254 3.2 16.1 0.03 0.05 0.05 87 1013.9
20191017172208 15 248 4.8 16.1 0.03 0.05 0.05 87 1013.9
20191017171708 15 235 1.6 12.9 0.03 0.05 0.05 88 1014.0
20191017171207 15 140 0.0 0.0 0.03 0.05 0.05 89 1013.9
20191017170708 15 59 0.0 0.0 0.03 0.05 0.05 89 1013.9
20191017170207 15 273 0.0 0.0 0.03 0.05 0.05 88 1013.9
20191017165707 15 273 0.0 0.0 0.03 0.05 0.05 87 1013.6
20191017165208 15 273 0.0 0.0 0.00 0.03 0.03 87 1013.5
20191017164706 15 273 0.0 0.0 0.00 0.03 0.03 86 1013.4
20191017164207 15 273 0.0 0.0 0.00 0.03 0.03 87 1013.3
20191017163707 16 273 0.0 0.0 0.00 0.03 0.03 85 1013.2
20191017163207 16 273 0.0 0.0 0.00 0.03 0.03 85 1013.1
20191017162708 16 273 0.0 0.0 0.00 0.03 0.03 84 1012.9
20191017162207 16 273 0.0 0.0 0.00 0.03 0.03 84 1012.9
20191017161707 16 273 0.0 0.0 0.00 0.03 0.03 83 1012.9
20191017161206 16 273 0.0 0.0 0.00 0.03 0.03 82 1012.9
20191017160706 16 273 0.0 0.0 0.00 0.03 0.03 81 1012.9
20191017160207 16 273 0.0 0.0 0.00 0.03 0.03 80 1012.9
20191017155707 17 273 0.0 0.0 0.00 0.03 0.03 79 1012.9
20191017155208 17 273 0.0 0.0 0.00 0.03 0.03 78 1012.9
20191017154707 17 273 0.0 0.0 0.00 0.03 0.03 76 1012.9
20191017154207 17 273 0.0 0.0 0.00 0.03 0.03 75 1012.8
20191017153707 17 273 0.0 0.0 0.00 0.03 0.03 73 1012.8
20191017153207 18 273 0.0 0.0 0.00 0.03 0.03 71 1012.8
20191017152707 18 273 0.0 0.0 0.00 0.03 0.03 71 1012.7
20191017152207 18 273 0.0 0.0 0.00 0.03 0.03 72 1012.7
20191017151708 18 252 0.0 0.0 0.00 0.03 0.03 73 1012.8
20191017151208 18 252 0.0 1.6 0.00 0.03 0.03 72 1012.8
20191017150707 19 252 0.0 8.0 0.00 0.03 0.03 68 1012.8
20191017150207 19 252 0.0 8.0 0.00 0.03 0.03 63 1012.7
20191017145707 20 252 0.0 8.0 0.00 0.03 0.03 62 1012.6
20191017145207 20 254 0.0 8.0 0.00 0.03 0.03 62 1012.8
20191017144707 20 231 1.6 8.0 0.00 0.03 0.03 61 1012.8
20191017144208 20 232 1.6 8.0 0.00 0.03 0.03 61 1012.9
20191017143707 20 292 1.6 8.0 0.00 0.03 0.03 61 1012.9
20191017143207 20 238 1.6 11.3 0.00 0.03 0.03 62 1012.9
20191017142707 19 260 3.2 12.9 0.00 0.03 0.03 61 1012.9
20191017142208 19 243 4.8 12.9 0.00 0.03 0.03 61 1012.9
20191017141708 20 229 4.8 14.5 0.00 0.03 0.03 60 1012.8
20191017141207 20 241 4.8 14.5 0.00 0.03 0.03 61 1012.8
20191017140707 20 244 3.2 14.5 0.00 0.03 0.03 60 1012.8
20191017140208 20 264 1.6 11.3 0.00 0.03 0.03 60 1012.8
20191017135707 20 252 1.6 4.8 0.00 0.03 0.03 61 1013.1
20191017135208 20 112 1.6 9.7 0.00 0.03 0.03 60 1013.1
20191017134707 20 111 1.6 9.7 0.00 0.03 0.03 58 1013.1
20191017134206 20 145 3.2 11.3 0.00 0.03 0.03 58 1013.1
20191017133707 20 234 1.6 11.3 0.00 0.03 0.03 58 1013.2
20191017133207 20 217 3.2 14.5 0.00 0.03 0.03 59 1013.2
20191017132707 20 224 3.2 14.5 0.00 0.03 0.03 59 1013.3
20191017132207 20 229 8.0 14.5 0.00 0.03 0.03 58 1013.4
20191017131707 20 148 4.8 12.9 0.00 0.03 0.03 58 1013.4
20191017131207 20 202 3.2 12.9 0.00 0.03 0.03 61 1013.2
20191017130707 20 142 3.2 11.3 0.00 0.03 0.03 60 1013.3
20191017130207 20 191 3.2 4.8 0.00 0.03 0.03 61 1013.3
20191017125707 20 138 1.6 4.8 0.00 0.03 0.03 62 1013.4
20191017125208 19 217 0.0 9.7 0.00 0.03 0.03 67 1013.4
20191017124707 19 344 1.6 12.9 0.00 0.03 0.03 65 1013.4
20191017124207 18 291 3.2 12.9 0.00 0.03 0.03 65 1013.6
20191017123707 18 270 3.2 12.9 0.00 0.03 0.03 64 1013.7
20191017123207 18 259 3.2 12.9 0.00 0.03 0.03 64 1013.8
20191017122706 18 258 3.2 12.9 0.00 0.03 0.03 64 1013.8
20191017122208 18 237 1.6 12.9 0.00 0.03 0.03 66 1013.9
20191017121707 18 276 1.6 12.9 0.00 0.03 0.03 66 1013.9
20191017121207 18 161 3.2 12.9 0.00 0.03 0.03 65 1013.9
20191017120707 18 237 3.2 14.5 0.00 0.03 0.03 63 1014.0
20191017120207 18 260 3.2 14.5 0.00 0.03 0.03 63 1013.9
20191017115707 19 280 3.2 14.5 0.00 0.03 0.03 61 1013.9
20191017115207 19 153 1.6 16.1 0.00 0.03 0.03 63 1013.9
20191017114708 19 142 3.2 16.1 0.00 0.03 0.03 64 1013.9
20191017114207 19 219 4.8 16.1 0.00 0.03 0.03 65 1013.9
20191017113707 19 249 3.2 11.3 0.00 0.03 0.03 65 1013.9
20191017113207 18 237 1.6 19.3 0.00 0.03 0.03 67 1014.0
20191017112706 18 157 3.2 19.3 0.00 0.03 0.03 68 1014.0
20191017112208 18 256 4.8 19.3 0.00 0.03 0.03 66 1014.1
20191017111707 18 160 1.6 8.0 0.00 0.03 0.03 67 1014.1
20191017111207 18 282 1.6 12.9 0.00 0.03 0.03 69 1014.2
20191017110708 17 240 3.2 12.9 0.00 0.03 0.03 68 1014.3
20191017110208 17 224 1.6 12.9 0.00 0.03 0.03 69 1014.3
20191017105707 17 275 1.6 11.3 0.00 0.03 0.03 70 1014.4
20191017105208 17 259 3.2 11.3 0.00 0.03 0.03 69 1014.5
20191017104707 17 251 3.2 8.0 0.00 0.03 0.03 70 1014.6
20191017104208 17 303 1.6 9.7 0.00 0.03 0.03 71 1014.6
20191017103707 16 243 1.6 14.5 0.00 0.03 0.03 72 1014.5
20191017103207 16 232 3.2 14.5 0.00 0.03 0.03 71 1014.5
20191017102709 16 280 3.2 8.0 0.00 0.03 0.03 71 1014.5
20191017102207 16 272 3.2 8.0 0.00 0.03 0.03 73 1014.5
20191017101707 16 267 3.2 8.0 0.00 0.03 0.03 73 1014.5
20191017101208 16 19 1.6 8.0 0.00 0.03 0.03 74 1014.5
20191017100707 16 221 3.2 8.0 0.00 0.03 0.03 75 1014.5
20191017100207 16 274 1.6 11.3 0.00 0.03 0.03 76 1014.6
20191017095708 15 158 1.6 14.5 0.00 0.03 0.03 77 1014.6
20191017095208 15 247 1.6 14.5 0.00 0.03 0.03 79 1014.6
20191017094707 15 286 3.2 14.5 0.00 0.03 0.03 78 1014.8
20191017094207 15 255 3.2 8.0 0.00 0.03 0.03 80 1014.7
20191017093707 14 200 1.6 8.0 0.00 0.03 0.03 84 1014.7
20191017093207 14 263 0.0 3.2 0.00 0.03 0.03 86 1014.7
20191017092707 13 233 0.0 8.0 0.00 0.03 0.03 89 1014.7
20191017092208 13 185 0.0 8.0 0.00 0.03 0.03 90 1014.8
20191017091708 13 185 0.0 8.0 0.00 0.03 0.03 92 1014.8
20191017091208 13 185 1.6 8.0 0.00 0.03 0.03 93 1014.8
20191017090707 12 144 1.6 4.8 0.00 0.03 0.03 95 1014.8
20191017090207 12 135 1.6 3.2 0.00 0.03 0.03 96 1014.9
20191017085707 11 150 0.0 3.2 0.00 0.03 0.03 97 1014.9
20191017085208 11 163 0.0 3.2 0.00 0.03 0.03 97 1014.8
20191017084707 11 164 0.0 3.2 0.00 0.03 0.03 97 1014.8
20191017084207 11 219 0.0 1.6 0.00 0.03 0.03 97 1014.8
20191017083707 11 219 0.0 0.0 0.00 0.03 0.03 97 1014.8
20191017083207 11 65 0.0 0.0 0.00 0.03 0.03 97 1014.8
20191017082707 11 65 0.0 3.2 0.00 0.03 0.03 97 1014.8
20191017082208 10 65 0.0 3.2 0.00 0.03 0.03 97 1014.9
20191017081708 10 65 0.0 3.2 0.00 0.03 0.03 97 1014.9
20191017081208 10 65 0.0 1.6 0.00 0.03 0.03 97 1014.8
20191017080707 10 59 0.0 1.6 0.00 0.03 0.03 97 1014.8
20191017080207 10 59 0.0 0.0 0.00 0.03 0.03 97 1014.9
20191017075707 10 59 0.0 1.6 0.00 0.03 0.03 97 1014.9
20191017075208 10 59 0.0 1.6 0.00 0.03 0.03 97 1014.9
20191017074707 10 59 0.0 1.6 0.00 0.03 0.03 97 1014.9
20191017074208 9 59 0.0 0.0 0.00 0.03 0.03 97 1014.9
20191017073707 9 59 0.0 0.0 0.00 0.03 0.03 97 1014.9
20191017073208 9 59 0.0 0.0 0.00 0.03 0.03 97 1015.0
20191017072708 9 59 0.0 0.0 0.00 0.03 0.03 97 1014.9
20191017072208 9 59 0.0 0.0 0.00 0.03 0.03 97 1014.8
20191017071707 8 59 0.0 0.0 0.00 0.03 0.03 97 1014.8
20191017071207 8 59 0.0 0.0 0.00 0.03 0.03 97 1014.8
20191017070707 8 59 0.0 0.0 0.00 0.03 0.03 97 1014.8
20191017070207 8 59 0.0 0.0 0.00 0.03 0.03 97 1014.8
20191017065707 8 59 0.0 0.0 0.00 0.03 0.03 97 1014.7
20191017065208 8 59 0.0 0.0 0.00 0.03 0.03 96 1014.7
20191017064707 8 59 0.0 0.0 0.00 0.03 0.03 96 1014.6
20191017064207 8 59 0.0 0.0 0.00 0.03 0.03 96 1014.5
20191017063707 8 59 0.0 0.0 0.00 0.03 0.03 96 1014.5
20191017063207 8 59 0.0 0.0 0.00 0.03 0.03 96 1014.6
20191017062707 8 59 0.0 0.0 0.00 0.03 0.03 96 1014.6
20191017062207 8 59 0.0 0.0 0.00 0.03 0.03 96 1014.5
20191017061707 8 59 0.0 0.0 0.00 0.03 0.03 96 1014.4
20191017061207 8 59 0.0 0.0 0.00 0.03 0.03 96 1014.4
20191017060708 8 59 0.0 0.0 0.00 0.03 0.03 96 1014.4
20191017060207 8 59 0.0 0.0 0.00 0.03 0.03 96 1014.2
20191017055707 8 59 0.0 1.6 0.00 0.03 0.03 96 1014.1
20191017055208 8 59 0.0 1.6 0.00 0.03 0.03 96 1014.1
20191017054707 8 59 0.0 1.6 0.00 0.03 0.03 96 1014.1
20191017054207 8 59 0.0 3.2 0.00 0.03 0.03 96 1014.1
20191017053707 8 59 0.0 3.2 0.00 0.03 0.03 96 1014.1
20191017053207 8 59 0.0 3.2 0.00 0.03 0.03 96 1014.1
20191017052707 8 59 0.0 0.0 0.00 0.03 0.03 96 1014.1
20191017052208 8 19 0.0 0.0 0.03 0.03 0.03 96 1014.0
20191017051707 8 19 0.0 0.0 0.03 0.03 0.03 96 1013.8
20191017051207 7 19 0.0 0.0 0.03 0.03 0.03 96 1014.0
20191017050707 7 19 0.0 0.0 0.03 0.03 0.03 96 1014.0
20191017050206 7 19 0.0 0.0 0.03 0.03 0.03 96 1014.1
20191017045707 7 19 0.0 0.0 0.03 0.03 0.03 96 1014.1
20191017045208 7 19 0.0 0.0 0.03 0.03 0.03 96 1014.1
20191017044707 7 19 0.0 0.0 0.03 0.03 0.03 96 1014.1
20191017044207 7 19 0.0 0.0 0.03 0.03 0.03 96 1014.1
20191017043707 7 19 0.0 0.0 0.03 0.03 0.03 96 1014.2
20191017043208 7 19 0.0 0.0 0.03 0.03 0.03 96 1014.2
20191017042708 7 19 0.0 0.0 0.00 0.00 0.03 96 1014.3
20191017042208 7 19 0.0 0.0 0.00 0.00 0.00 96 1014.2
20191017041707 7 19 0.0 0.0 0.00 0.00 0.00 96 1014.2
20191017041208 7 19 0.0 0.0 0.00 0.00 0.00 96 1014.2
20191017040708 7 19 0.0 0.0 0.00 0.00 0.00 96 1014.3
20191017040207 7 19 0.0 0.0 0.00 0.00 0.00 96 1014.2
20191017035708 7 19 0.0 0.0 0.00 0.00 0.00 96 1014.2
20191017035207 7 19 0.0 0.0 0.00 0.00 0.00 96 1014.2
20191017034707 7 19 0.0 0.0 0.00 0.00 0.00 96 1014.1
20191017034207 7 19 0.0 0.0 0.00 0.00 0.00 96 1014.1
20191017033707 7 19 0.0 0.0 0.00 0.00 0.00 96 1014.1
20191017033207 7 22 0.0 0.0 0.00 0.00 0.00 96 1014.2